When you browse on this site, cookies collect data to enhance your experience and personalize the content and advertising you see.
Visit our Privacy Policy to learn more. By continuing to use the site, you agree to this use of cookies and data.
  • In Netherlands
  • List of Countries
  • For 7 days
  • Water Temperature
  • Satellite Maps
  • Weather Map
  • Weather Widgets
  • user-avatar
    Login

    Hourly Weather Gold Coast

    Today, 20 January, Sunday

    Time Temperature Precipitation Wind Pressure Humidity
    00:00 +23°C° 0 mm 1 mps 758 mmHg 92%
    01:00 +22°C° 0 mm 1 mps 758 mmHg 93%
    02:00 +22°C° 0 mm 1 mps 758 mmHg 93%
    03:00 +22°C° 0 mm 1 mps 758 mmHg 93%
    04:00 +20°C° 0 mm 0 mps 758 mmHg 95%
    05:00 +24°C° 0 mm 1 mps 759 mmHg 90%
    06:00 +25°C° 0 mm 1 mps 759 mmHg 84%
    07:00 +26°C° 0 mm 1 mps 760 mmHg 79%
    08:00 +28°C° 0 mm 1 mps 760 mmHg 69%
    09:00 +30°C° 0 mm 2 mps 760 mmHg 60%
    10:00 +32°C° 0 mm 2 mps 760 mmHg 51%
    11:00 +34°C° 0 mm 3 mps 759 mmHg 49%
    12:00 +34°C° 0 mm 3 mps 759 mmHg 48%
    13:00 +35°C° 0 mm 4 mps 759 mmHg 46%
    14:00 +34°C° 0 mm 4 mps 758 mmHg 50%
    15:00 +34°C° 0 mm 4 mps 758 mmHg 53%
    16:00 +33°C° 0 mm 3 mps 758 mmHg 59%
    17:00 +30°C° 0 mm 3 mps 758 mmHg 66%
    18:00 +28°C° 0 mm 3 mps 758 mmHg 73%
    19:00 +27°C° 0 mm 3 mps 759 mmHg 79%
    20:00 +27°C° 0 mm 2 mps 759 mmHg 80%
    21:00 +26°C° 0 mm 2 mps 759 mmHg 81%
    22:00 +26°C° 0 mm 2 mps 759 mmHg 83%
    23:00 +26°C° 0 mm 2 mps 759 mmHg 83%

    Tomorrow, 21 January, Monday

    Time Temperature Precipitation Wind Pressure Humidity
    00:00 +26°C° 0 mm 1 mps 759 mmHg 82%
    01:00 +26°C° 0 mm 1 mps 759 mmHg 82%
    02:00 +25°C° 0 mm 1 mps 759 mmHg 83%
    03:00 +25°C° 0 mm 1 mps 759 mmHg 85%
    04:00 +24°C° 0 mm 1 mps 758 mmHg 86%
    05:00 +25°C° 0 mm 1 mps 759 mmHg 81%
    06:00 +26°C° 0 mm 1 mps 759 mmHg 77%
    07:00 +27°C° 0 mm 1 mps 759 mmHg 72%
    08:00 +28°C° 0 mm 2 mps 759 mmHg 65%
    09:00 +30°C° 0 mm 2 mps 759 mmHg 58%
    10:00 +31°C° 0 mm 3 mps 759 mmHg 51%
    11:00 +33°C° 0 mm 3 mps 758 mmHg 51%
    12:00 +33°C° 0 mm 3 mps 758 mmHg 50%
    13:00 +34°C° 0 mm 4 mps 758 mmHg 50%
    14:00 +33°C° 0 mm 4 mps 757 mmHg 53%
    15:00 +32°C° 0 mm 4 mps 757 mmHg 57%
    16:00 +30°C° 0 mm 4 mps 757 mmHg 60%
    17:00 +29°C° 0 mm 4 mps 758 mmHg 67%
    18:00 +27°C° 0 mm 3 mps 758 mmHg 73%
    19:00 +26°C° 0 mm 3 mps 759 mmHg 79%
    20:00 +25°C° 0 mm 3 mps 759 mmHg 81%
    21:00 +25°C° 0 mm 2 mps 760 mmHg 83%
    22:00 +24°C° 0 mm 2 mps 760 mmHg 85%
    23:00 +24°C° 0 mm 2 mps 760 mmHg 86%

    Day after tomorrow, 22 January, Tuesday

    Time Temperature Precipitation Wind Pressure Humidity
    00:00 +24°C° 0 mm 2 mps 759 mmHg 86%
    01:00 +24°C° 0 mm 1 mps 759 mmHg 86%
    02:00 +24°C° 0 mm 1 mps 759 mmHg 87%
    03:00 +24°C° 0 mm 1 mps 758 mmHg 88%
    04:00 +23°C° 0 mm 1 mps 758 mmHg 89%
    05:00 +24°C° 0 mm 1 mps 758 mmHg 84%
    06:00 +25°C° 0 mm 2 mps 759 mmHg 79%
    07:00 +26°C° 0 mm 2 mps 759 mmHg 74%
    08:00 +28°C° 0 mm 2 mps 759 mmHg 68%
    09:00 +29°C° 0 mm 3 mps 759 mmHg 62%
    10:00 +30°C° 0 mm 3 mps 759 mmHg 56%
    11:00 +31°C° 0 mm 3 mps 758 mmHg 54%
    12:00 +33°C° 0 mm 3 mps 758 mmHg 51%
    13:00 +33°C° 0 mm 3 mps 757 mmHg 49%
    14:00 +33°C° 0 mm 4 mps 757 mmHg 52%
    15:00 +32°C° 0 mm 4 mps 757 mmHg 54%
    16:00 +30°C° 0 mm 4 mps 756 mmHg 57%
    17:00 +29°C° 0 mm 4 mps 757 mmHg 64%
    18:00 +27°C° 0 mm 3 mps 757 mmHg 71%
    19:00 +26°C° 0 mm 3 mps 758 mmHg 78%
    20:00 +25°C° 0 mm 2 mps 758 mmHg 82%
    21:00 +25°C° 0 mm 2 mps 759 mmHg 86%
    22:00 +24°C° 0 mm 1 mps 759 mmHg 90%
    23:00 +24°C° 0 mm 2 mps 759 mmHg 90%

    23 January, Wednesday

    Time Temperature Precipitation Wind Pressure Humidity
    00:00 +24°C° 0 mm 2 mps 758 mmHg 91%
    01:00 +24°C° 0 mm 2 mps 757 mmHg 91%
    02:00 +24°C° 0 mm 2 mps 757 mmHg 92%
    03:00 +24°C° 0 mm 2 mps 757 mmHg 92%
    04:00 +24°C° 0 mm 2 mps 757 mmHg 93%
    05:00 +25°C° 0 mm 2 mps 757 mmHg 88%
    06:00 +26°C° 0 mm 2 mps 757 mmHg 84%
    07:00 +27°C° 0 mm 3 mps 758 mmHg 80%
    08:00 +28°C° 0 mm 3 mps 758 mmHg 73%
    09:00 +30°C° 0 mm 3 mps 758 mmHg 67%
    10:00 +31°C° 0 mm 3 mps 757 mmHg 60%
    11:00 +33°C° 0 mm 4 mps 757 mmHg 56%
    12:00 +34°C° 0 mm 4 mps 756 mmHg 52%
    13:00 +35°C° 0 mm 4 mps 755 mmHg 48%
    14:00 +35°C° 0 mm 4 mps 755 mmHg 50%
    15:00 +34°C° 0 mm 5 mps 754 mmHg 52%
    16:00 +34°C° 0 mm 5 mps 754 mmHg 54%
    17:00 +32°C° 0 mm 5 mps 754 mmHg 63%
    18:00 +29°C° 0 mm 4 mps 755 mmHg 71%
    19:00 +27°C° 0 mm 4 mps 755 mmHg 80%
    20:00 +26°C° 0 mm 4 mps 755 mmHg 82%
    21:00 +26°C° 0 mm 3 mps 756 mmHg 85%
    22:00 +25°C° 0 mm 3 mps 756 mmHg 88%
    23:00 +25°C° 0 mm 3 mps 756 mmHg 88%

    24 January, Thursday

    Time Temperature Precipitation Wind Pressure Humidity
    00:00 +25°C° 0 mm 3 mps 756 mmHg 89%
    01:00 +25°C° 0 mm 3 mps 756 mmHg 89%
    02:00 +25°C° 0 mm 3 mps 756 mmHg 89%
    03:00 +25°C° 0 mm 3 mps 756 mmHg 88%
    04:00 +25°C° 0 mm 3 mps 756 mmHg 88%
    05:00 +26°C° 0 mm 3 mps 756 mmHg 85%
    06:00 +26°C° 0 mm 2 mps 756 mmHg 82%
    07:00 +27°C° 0 mm 2 mps 757 mmHg 80%
    08:00 +29°C° 0 mm 2 mps 757 mmHg 70%
    09:00 +31°C° 0 mm 2 mps 757 mmHg 60%
    10:00 +34°C° 0 mm 3 mps 757 mmHg 51%
    11:00 +34°C° 0 mm 3 mps 756 mmHg 50%
    12:00 +35°C° 0 mm 4 mps 756 mmHg 50%
    13:00 +35°C° 0 mm 5 mps 755 mmHg 50%
    14:00 +34°C° 0 mm 5 mps 755 mmHg 53%
    15:00 +33°C° 0 mm 5 mps 755 mmHg 56%
    16:00 +33°C° 0 mm 5 mps 755 mmHg 59%
    17:00 +30°C° 0 mm 4 mps 755 mmHg 66%
    18:00 +29°C° 0 mm 4 mps 756 mmHg 72%
    19:00 +27°C° 0 mm 4 mps 757 mmHg 78%
    20:00 +27°C° 0 mm 3 mps 757 mmHg 81%
    21:00 +26°C° 0 mm 3 mps 758 mmHg 84%
    22:00 +26°C° 0 mm 3 mps 758 mmHg 88%
    23:00 +26°C° 0.1 mm 3 mps 758 mmHg 89%

    25 January, Friday

    Time Temperature Precipitation Wind Pressure Humidity
    00:00 +26°C° 0.1 mm 2 mps 758 mmHg 90%
    01:00 +25°C° 0.1 mm 2 mps 758 mmHg 91%
    02:00 +25°C° 0 mm 2 mps 757 mmHg 91%
    03:00 +25°C° 0 mm 2 mps 757 mmHg 92%
    04:00 +25°C° 0 mm 2 mps 757 mmHg 92%
    05:00 +26°C° 0 mm 2 mps 758 mmHg 88%
    06:00 +26°C° 0 mm 2 mps 758 mmHg 84%
    07:00 +27°C° 0 mm 2 mps 758 mmHg 80%
    08:00 +28°C° 0 mm 3 mps 758 mmHg 72%
    09:00 +30°C° 0 mm 3 mps 758 mmHg 65%
    10:00 +31°C° 0 mm 3 mps 758 mmHg 57%
    11:00 +33°C° 0 mm 3 mps 757 mmHg 53%
    12:00 +33°C° 0 mm 4 mps 757 mmHg 50%
    13:00 +34°C° 0 mm 4 mps 757 mmHg 47%
    14:00 +34°C° 0 mm 4 mps 756 mmHg 49%
    15:00 +33°C° 0 mm 4 mps 756 mmHg 51%
    16:00 +32°C° 0 mm 4 mps 756 mmHg 53%
    17:00 +30°C° 0 mm 3 mps 756 mmHg 63%
    18:00 +28°C° 0 mm 3 mps 756 mmHg 72%
    19:00 +26°C° 0 mm 3 mps 757 mmHg 82%
    20:00 +26°C° 0 mm 3 mps 757 mmHg 84%
    21:00 +25°C° 0 mm 3 mps 758 mmHg 86%
    22:00 +25°C° 0 mm 3 mps 758 mmHg 88%
    23:00 +25°C° 0 mm 3 mps 758 mmHg 86%
    Show more